Starlink 1502

operational
NORAD ID: 45764 Int'l Des: 2020-038 Owner: SPXS Country: US Constellation: starlink
LEOCIRCULARSTARLINK_TYPE

About Starlink 1502

Description loading...

Live Position

Loading 3D Globe...

Upcoming Passes

Altitude History

Altitude vs Time

uPlot chart will show altitude changes over time

Two-Line Element Set

1 45764U 20038AL 25260.45567054 -.00000134 00000-0 99176-5 0 9996
2 45764 53.0530 274.2956 0001187 81.6688 278.4435 15.06389186290374
Epoch: Sep 17, 2025 • Age: 20 hours

Current Status

Altitude 566.4 km
Velocity 7.58 km/s
Sub-Earth Point -52.74°S, 64.42°E
Launch Date Jun 13, 2020
Age 5.2 years
Type internet

Technical Details

Classification Payload
Mass 260.00 kg
Dry Mass 248.00 kg
Total Mass 260.00 kg
Length 0.20 m
Diameter 2.80 m
Span 9.00 m
Shape Box + pan
Manufacturer SPXS
Bus Type Starlink
Phase Status In Orbit
Owner/State SPXS/US

Large Constellations

Loading constellations...